Location: Koslow
(50.3020°N, 18.5663°E)
Time: 21:32:59
(UTC+00:00)

STARLINK-1330 - Pass Details

Date: 07 June 2020
Orbit: 379 x 380 km, 53.0° (Epoch: 04 July)

Event Time Altitude Azimuth Distance (km) Brightness Sun altitude
Rises 01:32:49 0° 291° (WNW) 2,258 6.6 -8.0°
Reaches altitude 10° 01:34:53 10° 288° (WNW) 1,403 5.5 -7.8°
Maximum altitude 01:37:59 62° 207° (SSW) 433 2.8 -7.5°
Drops below altitude 10° 01:41:04 10° 125° (SE) 1,397 5.8 -7.2°
Sets 01:43:08 0° 122° (ESE) 2,247 6.9 -7.0°
